Regional Weather Roundup
Issued by NWS Upton, NY

Current Version | Previous Version | Graphics & Text | Print | Product List | Glossary Off
Versions: 1 2 3 4 5 6 7 8 9 10 11 12 13 14 15 16 17 18 19 20 21 22 23 24 25 26 27

000
ASUS41 KOKX 251305
RWROKX
REGIONAL WEATHER ROUNDUP
NATIONAL WEATHER SERVICE NEW YORK NY
900 AM EDT SAT OCT 25 2014

NOTE: "FAIR" INDICATES FEW OR NO CLOUDS BELOW 12,000 FEET WITH NO
SIGNIFICANT WEATHER AND/OR OBSTRUCTIONS TO VISIBILITY.

NYZ071-072-176-178-NJZ106-104-251400-
NEW YORK CITY METRO AREA


CITY           SKY/WX    TMP DP  RH WIND       PRES   REMARKS
CENTRAL PARK   SUNNY     52  36  54 CALM      29.89S
LAGUARDIA APRT MOSUNNY   54  37  52 W13       29.85F
KENNEDY INTL   MOSUNNY   55  38  52 W10       29.87S
NEWARK/LIBERTY MOSUNNY   52  36  54 SW6       29.87F
BRNX BOT. GARD   N/A     52  37  58 W10       29.86S
TETERBORO      SUNNY     54  37  52 NW3       29.86F
$$

NYZ177-179-078>081-251400-
LONG ISLAND NEW YORK

CITY           SKY/WX    TMP DP  RH WIND       PRES   REMARKS
FARMINGDALE    SUNNY     52  40  63 NW7       29.85S
ISLIP          MOSUNNY   52  43  71 W8        29.83S
SHIRLEY        SUNNY     53  44  71 NW7       29.84F
WESTHAMPTON    SUNNY     52  47  83 NW3       29.85S
MONTAUK POINT    N/A     56  45  66 W8        29.83S
$$

NYZ052-065-067-251400-
HUDSON VALLEY

CITY           SKY/WX    TMP DP  RH WIND       PRES   REMARKS
WHITE PLAINS   SUNNY     50  39  66 NW12      29.83F
NEWBURGH       SUNNY     46  39  76 SW12      29.85F
MONTGOMERY     SUNNY     49  37  63 S7        29.84F
POUGHKEEPSIE   SUNNY     41  38  89 CALM      29.85F
ALBANY         MOSUNNY   49  42  77 SW5       29.83F
$$

NJZ001-105-106-008-010-013-015-019>022-104-251400-
NEW JERSEY

CITY           SKY/WX    TMP DP  RH WIND       PRES   REMARKS
NEWARK/LIBERTY MOSUNNY   52  36  54 SW6       29.87F
TETERBORO      SUNNY     54  37  52 NW3       29.86F
CALDWELL       SUNNY     50  36  58 CALM      29.88F
MORRISTOWN     SUNNY     46  39  76 CALM      29.88F
SOMERVILLE     SUNNY     45  40  82 CALM      29.87F
SUSSEX         SUNNY     46  36  68 SW3       29.87F
ANDOVER          N/A     44  37  76 CALM      29.88F
TRENTON        SUNNY     50  32  50 W3        29.90S
MILLVILLE      SUNNY     51  44  77 W6        29.93S
ATLANTIC CITY  SUNNY     51  41  68 NW9       29.92R
WRIGHTSTOWN    SUNNY     52  36  54 NW7       29.88F HAZE
TOMS RIVER     SUNNY     50  36  57 W3        29.91S
BELMAR         SUNNY     48  34  57 W9        29.88F
$$

PAZ047>061-062-071-251400-
EASTERN PENNSYLVANIA

CITY           SKY/WX    TMP DP  RH WIND       PRES   REMARKS
PHILADELPHIA   SUNNY     53  39  59 W5        29.92F
ALLENTOWN      SUNNY     48  37  65 SW3       29.90F
SCRANTON       SUNNY     45  35  68 CALM      29.88F
$$

CTZ002-004>006-009-010-012-RIZ004-006-007-MAZ004-011-015-251400-
SOUTHERN NEW ENGLAND
 IN CT

CITY           SKY/WX    TMP DP  RH WIND       PRES   REMARKS
BRADLEY INTL   MOSUNNY   50  42  74 CALM      29.81F
HARTFORD       SUNNY     51  42  71 SW7       29.82F
DANBURY        SUNNY     44  40  85 CALM      29.85F
WTRBRY/OXFORD  SUNNY     46  37  71 CALM      29.84F
BRIDGEPORT     SUNNY     53  41  63 NW5       29.84S
MERIDEN        SUNNY     49  43  80 CALM      29.82F
NEW HAVEN      SUNNY     53  41  63 NW5       29.83F
CHESTER        FAIR      52  39  62 NW7G16    29.82S
GROTON         MOSUNNY   49  44  83 W6        29.81S
WILLIMANTIC    MOSUNNY   44  41  89 CALM      29.81S

 IN RI

CITY           SKY/WX    TMP DP  RH WIND       PRES   REMARKS
PROVIDENCE     MOSUNNY   49  41  74 W7        29.79F
BLOCK ISLAND   MOSUNNY   55  45  67 W10       29.80F
WESTERLY       MOSUNNY   49  43  80 W6        29.81S

 IN MA

CITY           SKY/WX    TMP DP  RH WIND       PRES   REMARKS
BOSTON         MOSUNNY   50  39  66 W9G20     29.75F
WORCESTER      PTSUNNY   46  39  76 W10       29.77S
WESTFIELD      SUNNY     50  41  71 W3        29.80F
PROVINCETOWN   SUNNY     54   0  11 W10       29.75F
NANTUCKET      SUNNY     54  47  77 NW12      29.77F
$$

ANZ330-335-338-340-345-350-353-355-251400-
COASTAL MARINE OBSERVATIONS


STATION/POSITION TIME  SKY/WX   TEMP    WIND        PRES    VSBY  WAVE
                                AIR SEA DIR/SP/G                  HT/PER
                 (UTC)          (F)     (DEG/KT/KT) (MB)    (MI)  (FT/S)
NY HARB ENTRANCE NOT AVBL
4S FIRE IS       1300               62                N/A           2/ 9
20S FIRE ISLAND  1300            58 63  310/ 12/ 14 1010.8          3/ 4
23SW MTP         1300                                 N/A           3/10
HUDSON CANYON    1300            60 65  330/ 10/ 12 1010.5          4/ 5
EXECUTION ROCKS  1300            54 61  260/  8/ 12   N/A
WESTERN LI SOUND 1200            53     280/  8/ 12   N/A           0
CENTRAL LI SOUND 1200            54 63  310/ 12/ 16   N/A           1/ 3
EASTERN LI SOUND 1200            54 63  280/ 12/ 16   N/A
ROBBINS REEF     1300            51     280/  9/ 11 1010.3
$$


>>>>>>>>>>>>>>>>>>>>>>>>>>>> KEY <<<<<<<<<<<<<<<<<<<<<<<<<<<
>                                                          <
>     SKY/WX - SKY CONDITION/PRESENT WEATHER               <
>     TMP    - TEMPERATURE IN FAHRENHEIT                   <
>     DP     - DEWPOINT IN FAHRENHEIT                      <
>     RH     - RELATIVE HUMIDITY IN PERCENT                <
>     WIND   - DIRECTION AND SPEED IN MPH                  <
>     PRES   - MEAN SEA LEVEL PRESSURE IN INCHES OF HG     <
>     WCI    - WIND CHILL INDEX                            <
>     VSB    - VISIBILITY IN MILES                         <
>     HX     - HEAT INDEX                                  <
>     TC     - TEMPERATURE IN CELSIUS                      <
>     VRB    - VARIABLE WIND DIRECTION                     <
>                                                          <
>>>>>>>>>>>>>>>>>>>>>>>>>>>> KEY <<<<<<<<<<<<<<<<<<<<<<<<<<<





USA.gov is the U.S. government's official web portal to all federal, state and local government web resources and services.